| time (UTC) | temp F | wind direction | speed knots | gust knots | rain 1hr in | rain 24hr in | rain mn in | humidity % | barometer mb |
| 20260507012016 | 64 | 18 | 10.4 | 13.0 | 0.00 | 0.00 | 0.00 | 82 | 1012.5 |
| 20260507011016 | 65 | 16 | 8.7 | 11.3 | 0.00 | 0.00 | 0.00 | 82 | 1012.5 |
| 20260507010016 | 65 | 15 | 7.8 | 11.3 | 0.00 | 0.00 | 0.00 | 82 | 1012.5 |
| 20260507005016 | 65 | 10 | 7.0 | 10.4 | 0.00 | 0.00 | 0.00 | 81 | 1012.3 |
| 20260507004017 | 65 | 14 | 8.7 | 13.0 | 0.00 | 0.00 | 0.00 | 81 | 1012.3 |
| 20260507003016 | 65 | 16 | 7.8 | 12.2 | 0.00 | 0.00 | 0.00 | 81 | 1012.1 |
| 20260507002017 | 66 | 13 | 8.7 | 12.2 | 0.00 | 0.00 | 0.00 | 80 | 1012.1 |
| 20260507001037 | 66 | 354 | 6.1 | 10.4 | 0.00 | 0.01 | 0.00 | 80 | 1011.9 |
| 20260507000017 | 66 | 358 | 6.1 | 11.3 | 0.00 | 0.11 | 0.00 | 79 | 1011.8 |
| 20260506235017 | 67 | 2 | 6.1 | 8.7 | 0.00 | 0.11 | 0.00 | 79 | 1011.8 |
| 20260506234018 | 68 | 344 | 4.3 | 7.8 | 0.00 | 0.11 | 0.00 | 78 | 1011.6 |
| 20260506233017 | 68 | 333 | 7.0 | 13.9 | 0.00 | 0.11 | 0.00 | 78 | 1011.2 |
| 20260506232018 | 69 | 353 | 5.2 | 8.7 | 0.00 | 0.11 | 0.00 | 77 | 1011.3 |
| 20260506231018 | 69 | 352 | 7.0 | 12.2 | 0.00 | 0.11 | 0.00 | 76 | 1011.0 |
| 20260506230018 | 71 | 14 | 7.0 | 12.2 | 0.00 | 0.11 | 0.00 | 74 | 1010.9 |
| 20260506225039 | 71 | 6 | 8.7 | 12.2 | 0.00 | 0.11 | 0.00 | 74 | 1010.8 |
| 20260506224019 | 72 | 16 | 8.7 | 11.3 | 0.00 | 0.11 | 0.00 | 73 | 1010.6 |
| 20260506223019 | 73 | 14 | 8.7 | 11.3 | 0.00 | 0.11 | 0.00 | 72 | 1010.6 |
| 20260506222016 | 73 | 17 | 8.7 | 15.6 | 0.00 | 0.11 | 0.00 | 71 | 1010.6 |
| 20260506221017 | 74 | 16 | 8.7 | 13.9 | 0.00 | 0.11 | 0.00 | 71 | 1010.4 |
| 20260506220036 | 75 | 14 | 7.8 | 17.4 | 0.00 | 0.11 | 0.00 | 70 | 1010.6 |
| 20260506215016 | 75 | 8 | 10.4 | 18.2 | 0.00 | 0.11 | 0.00 | 72 | 1010.2 |
| 20260506214017 | 78 | 4 | 7.0 | 12.2 | 0.00 | 0.11 | 0.00 | 70 | 1010.0 |
| 20260506213017 | 81 | 351 | 7.0 | 12.2 | 0.00 | 0.11 | 0.00 | 67 | 1009.9 |
| 20260506212017 | 82 | 8 | 7.0 | 12.2 | 0.00 | 0.11 | 0.00 | 70 | 1010.0 |
| 20260506211017 | 82 | 6 | 6.1 | 11.3 | 0.00 | 0.11 | 0.00 | 70 | 1010.3 |
| 20260506210018 | 81 | 14 | 5.2 | 9.6 | 0.00 | 0.11 | 0.00 | 72 | 1010.3 |
| 20260506205018 | 80 | 356 | 4.3 | 7.8 | 0.00 | 0.11 | 0.00 | 74 | 1010.4 |
| 20260506204037 | 81 | 340 | 4.3 | 7.8 | 0.00 | 0.11 | 0.00 | 72 | 1010.4 |
| 20260506203018 | 81 | 3 | 7.0 | 10.4 | 0.00 | 0.11 | 0.00 | 71 | 1010.4 |
| 20260506202018 | 81 | 341 | 4.3 | 9.6 | 0.00 | 0.11 | 0.00 | 71 | 1010.6 |
| 20260506201018 | 80 | 7 | 6.1 | 10.4 | 0.00 | 0.11 | 0.00 | 72 | 1010.7 |
| 20260506200019 | 79 | 353 | 5.2 | 11.3 | 0.00 | 0.11 | 0.00 | 74 | 1010.7 |
| 20260506195019 | 79 | 358 | 5.2 | 8.7 | 0.00 | 0.11 | 0.00 | 76 | 1010.9 |
| 20260506194016 | 79 | 338 | 6.1 | 12.2 | 0.00 | 0.11 | 0.00 | 77 | 1011.0 |
| 20260506193016 | 78 | 324 | 5.2 | 8.7 | 0.00 | 0.11 | 0.00 | 80 | 1011.1 |
| 20260506192016 | 78 | 284 | 4.3 | 8.7 | 0.00 | 0.11 | 0.00 | 79 | 1011.3 |
| 20260506191137 | 79 | 285 | 3.5 | 6.1 | 0.00 | 0.11 | 0.00 | 78 | 1011.2 |
| 20260506190037 | 78 | 303 | 2.6 | 5.2 | 0.00 | 0.11 | 0.00 | 78 | 1011.1 |
| 20260506185016 | 77 | 334 | 2.6 | 4.3 | 0.00 | 0.11 | 0.00 | 82 | 1011.2 |
| 20260506184017 | 76 | 328 | 2.6 | 6.1 | 0.00 | 0.11 | 0.00 | 84 | 1011.4 |
| 20260506183017 | 74 | 313 | 2.6 | 4.3 | 0.00 | 0.11 | 0.00 | 87 | 1011.6 |
| 20260506182017 | 73 | 287 | 1.7 | 4.3 | 0.00 | 0.11 | 0.00 | 89 | 1011.6 |
| 20260506181017 | 73 | 318 | 2.6 | 5.2 | 0.00 | 0.11 | 0.00 | 90 | 1011.7 |
| 20260506180017 | 73 | 350 | 3.5 | 7.8 | 0.00 | 0.11 | 0.00 | 90 | 1011.8 |
| 20260506175037 | 73 | 345 | 5.2 | 7.8 | 0.00 | 0.11 | 0.00 | 91 | 1011.8 |
| 20260506174018 | 72 | 4 | 4.3 | 7.0 | 0.00 | 0.11 | 0.00 | 92 | 1011.8 |
| 20260506173018 | 71 | 1 | 5.2 | 7.0 | 0.00 | 0.11 | 0.00 | 92 | 1011.7 |
| 20260506172018 | 72 | 9 | 5.2 | 8.7 | 0.00 | 0.11 | 0.00 | 92 | 1011.7 |
| 20260506171039 | 74 | 4 | 7.0 | 9.6 | 0.00 | 0.11 | 0.00 | 90 | 1011.7 |
| 20260506170018 | 76 | 326 | 3.5 | 7.0 | 0.00 | 0.11 | 0.00 | 90 | 1011.8 |
| 20260506165042 | 75 | 334 | 2.6 | 4.3 | 0.00 | 0.11 | 0.00 | 90 | 1011.7 |
| 20260506164018 | 75 | 350 | 2.6 | 4.3 | 0.00 | 0.11 | 0.00 | 90 | 1011.6 |
| 20260506163022 | 75 | 321 | 0.9 | 1.7 | 0.00 | 0.11 | 0.00 | 91 | 1011.5 |
| 20260506162042 | 75 | 345 | 2.6 | 3.5 | 0.00 | 0.11 | 0.00 | 90 | 1011.5 |
| 20260506161022 | 75 | 360 | 1.7 | 2.6 | 0.00 | 0.11 | 0.00 | 91 | 1011.4 |
| 20260506160022 | 75 | 3 | 0.9 | 1.7 | 0.00 | 0.11 | 0.00 | 93 | 1011.4 |
| 20260506155022 | 74 | 355 | 0.9 | 1.7 | 0.00 | 0.11 | 0.00 | 94 | 1011.3 |
| 20260506154023 | 74 | 149 | 0.9 | 2.6 | 0.00 | 0.11 | 0.00 | 95 | 1011.1 |
| 20260506153042 | 73 | 165 | 1.7 | 3.5 | 0.00 | 0.11 | 0.00 | 95 | 1011.0 |
| 20260506152023 | 73 | 207 | 0.9 | 2.6 | 0.00 | 0.11 | 0.00 | 95 | 1011.0 |
| 20260506151023 | 73 | 209 | 1.7 | 2.6 | 0.00 | 0.11 | 0.00 | 95 | 1011.0 |
| 20260506150020 | 73 | 218 | 3.5 | 5.2 | 0.00 | 0.11 | 0.00 | 94 | 1011.0 |
| 20260506145024 | 74 | 228 | 2.6 | 4.3 | 0.00 | 0.11 | 0.00 | 94 | 1010.9 |
| 20260506144021 | 74 | 213 | 3.5 | 4.3 | 0.00 | 0.11 | 0.00 | 92 | 1010.8 |
| 20260506143024 | 74 | 208 | 2.6 | 3.5 | 0.00 | 0.11 | 0.00 | 92 | 1010.8 |
| 20260506142043 | 74 | 181 | 0.0 | 0.9 | 0.00 | 0.11 | 0.00 | 92 | 1010.8 |
| 20260506141024 | 74 | 166 | 1.7 | 3.5 | 0.00 | 0.11 | 0.00 | 92 | 1010.5 |
| 20260506140021 | 74 | 168 | 3.5 | 7.0 | 0.00 | 0.11 | 0.00 | 92 | 1010.1 |
| 20260506135025 | 74 | 163 | 1.7 | 3.5 | 0.00 | 0.11 | 0.00 | 93 | 1009.9 |
| 20260506134025 | 74 | 171 | 0.9 | 2.6 | 0.00 | 0.11 | 0.00 | 93 | 1009.7 |
| 20260506133022 | 74 | 166 | 3.5 | 6.1 | 0.00 | 0.11 | 0.00 | 94 | 1009.4 |
| 20260506132016 | 74 | 155 | 3.5 | 5.2 | 0.00 | 0.11 | 0.00 | 94 | 1009.3 |
| 20260506131025 | 73 | 170 | 2.6 | 4.3 | 0.00 | 0.11 | 0.00 | 94 | 1009.2 |
| 20260506130126 | 73 | 163 | 1.7 | 3.5 | 0.00 | 0.11 | 0.00 | 94 | 1009.2 |
| 20260506125017 | 73 | 155 | 1.7 | 4.3 | 0.00 | 0.11 | 0.00 | 94 | 1009.0 |
| 20260506124017 | 73 | 179 | 1.7 | 3.5 | 0.00 | 0.11 | 0.00 | 94 | 1008.9 |
| 20260506123017 | 73 | 156 | 2.6 | 6.1 | 0.00 | 0.11 | 0.00 | 95 | 1008.7 |
| 20260506122018 | 73 | 160 | 1.7 | 4.3 | 0.00 | 0.11 | 0.00 | 95 | 1008.8 |
| 20260506121018 | 73 | 161 | 1.7 | 4.3 | 0.00 | 0.11 | 0.00 | 95 | 1008.8 |
| 20260506120038 | 73 | 177 | 1.7 | 3.5 | 0.00 | 0.11 | 0.00 | 95 | 1008.8 |
| 20260506115038 | 73 | 189 | 2.6 | 3.5 | 0.00 | 0.11 | 0.00 | 95 | 1008.8 |
| 20260506114019 | 73 | 170 | 0.9 | 3.5 | 0.00 | 0.11 | 0.00 | 95 | 1008.9 |
| 20260506113019 | 73 | 154 | 1.7 | 3.5 | 0.00 | 0.11 | 0.00 | 95 | 1008.8 |
| 20260506112016 | 73 | 174 | 0.9 | 3.5 | 0.00 | 0.11 | 0.00 | 96 | 1008.9 |
| 20260506111016 | 73 | 146 | 2.6 | 5.2 | 0.00 | 0.11 | 0.00 | 96 | 1008.9 |
| 20260506110015 | 73 | 154 | 2.6 | 4.3 | 0.00 | 0.11 | 0.00 | 96 | 1008.9 |
| 20260506105016 | 73 | 157 | 2.6 | 4.3 | 0.00 | 0.11 | 0.00 | 96 | 1009.0 |
| 20260506104017 | 73 | 152 | 2.6 | 5.2 | 0.00 | 0.11 | 0.00 | 96 | 1009.0 |
| 20260506103017 | 73 | 163 | 2.6 | 5.2 | 0.00 | 0.11 | 0.00 | 96 | 1009.0 |
| 20260506102017 | 73 | 170 | 4.3 | 7.8 | 0.00 | 0.11 | 0.00 | 96 | 1009.0 |
| 20260506101037 | 73 | 162 | 4.3 | 7.8 | 0.00 | 0.11 | 0.00 | 96 | 1008.9 |
| 20260506100017 | 73 | 166 | 4.3 | 9.6 | 0.00 | 0.11 | 0.00 | 95 | 1008.9 |
| 20260506095017 | 73 | 164 | 5.2 | 7.8 | 0.00 | 0.11 | 0.00 | 95 | 1008.9 |
| 20260506094017 | 73 | 164 | 5.2 | 8.7 | 0.00 | 0.11 | 0.00 | 94 | 1008.8 |
| 20260506093018 | 74 | 164 | 4.3 | 10.4 | 0.00 | 0.11 | 0.00 | 93 | 1008.8 |
| 20260506092018 | 74 | 172 | 7.0 | 11.3 | 0.00 | 0.11 | 0.00 | 93 | 1008.7 |
| 20260506091018 | 74 | 163 | 5.2 | 7.8 | 0.00 | 0.11 | 0.00 | 93 | 1008.7 |
| 20260506090018 | 74 | 165 | 5.2 | 9.6 | 0.00 | 0.11 | 0.00 | 92 | 1008.5 |
| 20260506085018 | 74 | 162 | 5.2 | 9.6 | 0.00 | 0.11 | 0.00 | 92 | 1008.5 |
| 20260506084019 | 74 | 168 | 6.1 | 11.3 | 0.00 | 0.11 | 0.00 | 92 | 1008.4 |
| 20260506083056 | 74 | 170 | 7.0 | 13.9 | 0.00 | 0.11 | 0.00 | 93 | 1008.4 |
| 20260506082016 | 74 | 155 | 7.0 | 13.9 | 0.00 | 0.11 | 0.00 | 93 | 1008.4 |
| 20260506081016 | 74 | 161 | 6.1 | 10.4 | 0.00 | 0.11 | 0.00 | 93 | 1008.6 |
| 20260506073017 | 75 | 163 | 6.1 | 10.4 | 0.00 | 0.11 | 0.00 | 91 | 1009.0 |
| 20260506072017 | 75 | 165 | 3.5 | 7.8 | 0.00 | 0.11 | 0.00 | 90 | 1009.1 |
| 20260506071037 | 75 | 156 | 4.3 | 7.8 | 0.00 | 0.11 | 0.00 | 90 | 1009.2 |
| 20260506062038 | 75 | 161 | 7.0 | 10.4 | 0.00 | 0.11 | 0.00 | 89 | 1009.2 |
| 20260506061018 | 76 | 165 | 7.8 | 11.3 | 0.00 | 0.11 | 0.00 | 88 | 1009.1 |
| 20260506051016 | 76 | 157 | 7.0 | 9.6 | 0.00 | 0.11 | 0.00 | 87 | 1008.9 |
| 20260506050331 | 76 | 164 | 7.0 | 11.3 | 0.00 | 0.11 | 0.00 | 87 | 1008.9 |
| 20260506045016 | 76 | 163 | 6.1 | 11.3 | 0.00 | 0.11 | 0.11 | 88 | 1009.0 |
| 20260506044017 | 76 | 162 | 4.3 | 9.6 | 0.00 | 0.11 | 0.11 | 89 | 1008.9 |
| 20260506043037 | 75 | 176 | 1.7 | 3.5 | 0.00 | 0.11 | 0.11 | 89 | 1008.8 |
| 20260506042017 | 75 | 143 | 0.9 | 2.6 | 0.00 | 0.11 | 0.11 | 88 | 1008.7 |
| 20260506041017 | 75 | 145 | 2.6 | 5.2 | 0.00 | 0.11 | 0.11 | 87 | 1008.7 |
| 20260506040017 | 75 | 152 | 2.6 | 5.2 | 0.00 | 0.11 | 0.11 | 86 | 1008.6 |
| 20260506035018 | 75 | 93 | 0.9 | 2.6 | 0.00 | 0.11 | 0.11 | 86 | 1008.5 |
| 20260506034017 | 75 | 45 | 0.0 | 1.7 | 0.00 | 0.11 | 0.11 | 86 | 1008.3 |
| 20260506033018 | 75 | 31 | 0.9 | 1.7 | 0.00 | 0.11 | 0.11 | 85 | 1008.2 |
| 20260506032018 | 76 | 54 | 0.0 | 0.9 | 0.00 | 0.11 | 0.11 | 84 | 1008.1 |
| 20260506031018 | 76 | 9 | 0.9 | 1.7 | 0.00 | 0.11 | 0.11 | 83 | 1008.0 |
| 20260506030018 | 76 | 342 | 0.0 | 0.9 | 0.00 | 0.11 | 0.11 | 83 | 1007.7 |
| 20260506025018 | 76 | 15 | 0.0 | 0.9 | 0.00 | 0.11 | 0.11 | 83 | 1007.7 |
| 20260506024018 | 77 | 333 | 0.0 | 1.7 | 0.00 | 0.11 | 0.11 | 82 | 1007.5 |
| 20260506023016 | 77 | 10 | 0.9 | 2.6 | 0.00 | 0.11 | 0.11 | 82 | 1007.4 |
| 20260506022017 | 78 | 8 | 0.0 | 1.7 | 0.00 | 0.11 | 0.11 | 81 | 1007.2 |
| 20260506021017 | 78 | 185 | 0.9 | 2.6 | 0.00 | 0.11 | 0.11 | 79 | 1007.1 |
| 20260506020016 | 79 | 53 | 0.0 | 0.9 | 0.00 | 0.11 | 0.11 | 78 | 1006.9 |
| 20260506015016 | 79 | 199 | 1.7 | 2.6 | 0.00 | 0.11 | 0.11 | 77 | 1006.9 |
| 20260506014017 | 80 | 205 | 1.7 | 2.6 | 0.00 | 0.11 | 0.11 | 76 | 1006.6 |
| 20260506013039 | 81 | 145 | 0.9 | 3.5 | 0.00 | 0.11 | 0.11 | 74 | 1006.5 |